Regional Weather Roundup
Issued by NWS Goodland, KS

Home | Current Version | Previous Version | Graphics & Text | Print | Product List | Glossary On
Versions: 1 2 3 4 5 6 7 8 9 10 11 12 13 14 15 16 17 18 19 20 21 22 23 24 25 26 27 28 29 30 31 32 33 34 35 36 37 38 39 40 41 42 43 44 45 46 47 48 49 50
000
ASUS43 KGLD 201708
RWRGLD

GOODLAND FORECAST AREA HOURLY WEATHER ROUNDUP
NATIONAL WEATHER SERVICE GOODLAND KS
1100 AM MDT FRI OCT 20 2017

...OFFICIAL OBSERVATIONS...

CITY           SKY/WX    TMP DP  RH WIND       PRES   REMARKS
GOODLAND KS    CLOUDY    64  52  64 S16       29.68F
HILL CITY KS   SUNNY     70  54  56 S23G33    29.74F
IMPERIAL NEB   CLOUDY    65  52  62 S15       29.66F
MCCOOK NEB     SUNNY     69  52  54 S21G36    29.68F
AKRON CO       SUNNY     65  34  31 W16       29.68F
BURLINGTON CO  SUNNY     68  42  38 S17       29.70F
LIMON CO       SUNNY     72  28  19 NW9       29.73F
$$

...UNOFFICIAL OBSERVATIONS...

CITY           SKY/WX    TMP DP  RH WIND       PRES   REMARKS
COLBY KS       SUNNY     70  54  56 S18G28    29.71F
LENORA KS        N/A     68  32  26 S12         N/A
NORTON KS      SUNNY     68  46  45 SE16G29   29.70F
SHARON SPRINGS   N/A     69  52  54 S20G26      N/A
TRENTON NEB      N/A     68  32  26 S12         N/A
YUMA CO        FAIR      59  28  31 CALM      29.67F
$$




USA.gov is the U.S. government's official web portal to all federal, state and local government web resources and services.